This demonstration page uses our WeatherBlox Daily Observations layout. Learn more.

Left ArrowRight Arrow

Hourly Observations for July 18, 2021

Temp ( °F °C ) Dew Point ( °F °C ) Humidity (%) Winds ( mph kmh ) Pressure ( in mb ) Visibility ( mi km ) Precip ( " mm )
12:53 am 00:53 Clear 82 27.8 64 17.8 55 55 SSE 14 22 29.95 1014 10 16 0.00 0.00
1:53 am 01:53 Clear 81 27.2 65 18.3 58 58 SSE 18 30 29.93 1014 10 16 0.00 0.00
2:53 am 02:53 Partly Cloudy 80 26.7 65 18.3 60 60 SSE 14 22 29.94 1014 10 16 0.00 0.00
3:53 am 03:53 Mostly Clear 79 26.1 66 18.9 65 65 SSE 8 13 29.96 1014 10 16 0.00 0.00
4:53 am 04:53 Mostly Clear 77 25 66 18.9 69 69 SE 6 9 29.95 1014 10 16 0.00 0.00
5:53 am 05:53 Clear 77 25 66 18.9 69 69 ESE 10 17 29.95 1014 10 16 0.00 0.00
6:53 am 06:53 Clear 76 24.4 66 18.9 72 72 SE 8 13 29.98 1015 10 16 0.00 0.00
7:53 am 07:53 Sunny 76 24.4 66 18.9 72 72 E 6 9 29.99 1016 9 14 0.00 0.00
8:53 am 08:53 Sunny 77 25 67 19.4 71 71 ESE 10 17 30.01 1016 10 16 0.00 0.00
9:53 am 09:53 Mostly Sunny 79 26.1 67 19.4 67 67 ESE 7 11 30.03 1017 10 16 0.00 0.00
10:19 am 10:19 Mostly Cloudy 80 26.7 67 19.4 64 64 VRB 5 7 30.03 1017 10 16 0.00 0.00
10:53 am 10:53 Cloudy 83 28.3 67 19.4 59 59 N 12 19 30.06 1018 10 16 0.00 0.00
11:09 am 11:09 Cloudy 79 26.1 63 17.2 58 58 N 22 35 30.04 1017 10 16 0.00 0.00
11:21 am 11:21 Mostly Cloudy 83 28.3 64 17.8 53 53 N 20 31 30.01 1016 10 16 0.00 0.00
11:53 am 11:53 Sunny 86 30 65 18.3 49 49 NNE 15 24 30.04 1017 10 16 0.00 0.00
12:53 pm 12:53 Mostly Sunny 89 31.7 63 17.2 42 42 ENE 8 13 30.02 1017 10 16 0.00 0.00
1:53 pm 13:53 Mostly Sunny 88 31.1 62 16.7 42 42 ESE 5 7 30.01 1016 10 16 0.00 0.00
2:53 pm 14:53 Partly Cloudy 92 33.3 61 16.1 36 36 NNW 7 11 29.97 1015 10 16 0.00 0.00
3:53 pm 15:53 Mostly Cloudy 92 33.3 62 16.7 37 37 NNW 10 17 29.96 1015 10 16 0.00 0.00
4:53 pm 16:53 Mostly Sunny 93 33.9 62 16.7 36 36 NW 6 9 29.94 1014 10 16 0.00 0.00
5:53 pm 17:53 Cloudy 91 32.8 62 16.7 38 38 ESE 6 9 29.92 1013 10 16 0.00 0.00
6:12 pm 18:12 Cloudy with Thunderstorms 78 25.6 66 18.9 67 67 N 17 28 29.91 1013 3 5 0.02 0.51
6:14 pm 18:14 Cloudy with Thunderstorms 78 25.6 66 18.9 67 67 NNW 14 22 29.91 1013 2 3 0.04 1.02
6:22 pm 18:22 Cloudy with Strong Thunderstorms 77 25 67 19.4 71 71 WNW 14 22 29.92 1013 1 2 0.14 3.56
6:24 pm 18:24 Cloudy with Heavy Rain 77 25 68 20 74 74 W 13 20 29.92 1013 1 1 0.21 5.33
6:48 pm 18:48 Cloudy with Light Rain 81 27 64 18 58 58 WNW 7 11 29.90 1013 3 4 0.52 13.21
6:53 pm 18:53 Mostly Cloudy with Light Rain 81 27.2 67 19.4 62 62 VRB 7 11 29.95 1014 7 11 0.52 13.21
7:53 pm 19:53 Mostly Cloudy 83 28.3 67 19.4 59 59 ESE 8 13 29.94 1014 10 16 0.00 0.00
8:53 pm 20:53 Sunny 84 28.9 69 20.6 61 61 NNE 7 11 29.94 1014 10 16 0.00 0.00
9:53 pm 21:53 Mostly Clear 82 27.8 67 19.4 60 60 NNE 12 19 29.96 1014 10 16 0.00 0.00
10:53 pm 22:53 Clear 80 26.7 67 19.4 64 64 NE 6 9 29.98 1015 10 16 0.00 0.00
11:53 pm 23:53 Clear 78 25.6 68 20 71 71 NE 6 9 29.99 1016 10 16 0.00 0.00

Powered by AerisWeather